Moline, IL

2:17 PM CST on December 06, 2019 (GMT -0600)
Quad-City International

Weather History for KMLI - July, 2019

Change the Weather History Date:

Sunday, July 21, 2019

  Actual Average Record
Temperature  
Mean Temperature 80 °F 75 °F  
Max Temperature 85 °F 86 °F 105 °F (1901)
Min Temperature 74 °F 65 °F 50 °F (1944)
Degree Days  
Heating Degree Days 0 0  
Month to date heating degree days 0 0  
Since 1 June heating degree days 2 19  
Since 1 July heating degree days 0 0  
Cooling Degree Days 15 10  
Month to date cooling degree days 347 226  
Year to date cooling degree days 646 516  
Since 1 June cooling degree days 580 440  
Growing Degree Days 28 (Base 50)    
Moisture  
Dew Point 67 °F    
Average Humidity 67    
Maximum Humidity 79    
Minimum Humidity 54    
Precipitation  
Precipitation 0.00 in 0.13 in 3.45 in (1948)
Month to date precipitation 1.15 3.06  
Year to date precipitation 30.76 21.41  
Snow  
Snow 0.00 in 0.00 in - ()
Month to date snowfall 0.0 0.0  
Since 1 June snowfall 0.0 0.0  
Since 1 July snowfall 0.0 0.0  
Snow Depth 0.00 in    
Sea Level Pressure  
Sea Level Pressure 29.93 in    
Wind  
Wind Speed 8 mph (North)    
Max Wind Speed 14 mph    
Max Gust Speed 22 mph    
Visibility 10 miles    
Events      
T = Trace of Precipitation, MM = Missing Value Source: NWS Daily Summary

Daily Weather History Graph

Daily Weather History Graph

Search for Another Location

Airport or City:

Astronomy

Jul. 21, 2019 Rise Set
Actual Time 5:46 AM CDT 8:30 PM CDT
Civil Twilight 5:14 AM CDT 9:02 PM CDT
Nautical Twilight 4:33 AM CDT 9:42 PM CDT
Astronomical Twilight 3:46 AM CDT 10:28 PM CDT
Moon 11:21 PM CDT (7/21) 10:09 AM CDT (7/21)
Length of Visible Light 15h 48m
Length of Day
14h 43m
Waning Gibbous, 80% of the Moon is Illuminated
Jul 21
Waning Gibbous
Jul 24
Last Quarter
Jul 31
New
Aug 7
First Quarter
Aug 15
Full

Hourly Weather History & Observations

Time (CDT) Temp. Heat Index Dew Point Humidity Pressure Visibility Wind Dir Wind Speed Gust Speed Precip Events Conditions
12:52 AM 80.1 °F 83.2 °F 70.0 °F 71% 29.84 in 10.0 mi North 15.0 mph 20.7 mph N/A   Mostly Cloudy
1:52 AM 80.1 °F 82.9 °F 69.1 °F 69% 29.85 in 10.0 mi North 6.9 mph - N/A   Mostly Cloudy
2:52 AM 78.1 °F - 66.9 °F 68% 29.87 in 10.0 mi NNE 8.1 mph - N/A   Clear
3:52 AM 77.0 °F - 66.9 °F 71% 29.88 in 10.0 mi NNE 6.9 mph - N/A   Clear
4:52 AM 75.9 °F - 68.0 °F 76% 29.88 in 10.0 mi North 4.6 mph - N/A   Clear
5:52 AM 75.0 °F - 68.0 °F 79% 29.90 in 10.0 mi NNW 4.6 mph - N/A   Partly Cloudy
6:52 AM 75.0 °F - 68.0 °F 79% 29.91 in 10.0 mi Variable 6.9 mph - N/A   Clear
7:40 AM 75.0 °F - 68.0 °F 79% 29.96 in 10.0 mi North 6.9 mph - N/A   Mostly Cloudy
7:52 AM 75.0 °F - 68.0 °F 79% 29.95 in 10.0 mi NE 6.9 mph - N/A   Overcast
8:52 AM 75.9 °F - 68.0 °F 76% 29.95 in 10.0 mi ENE 11.5 mph - N/A   Overcast
9:52 AM 77.0 °F - 69.1 °F 76% 29.94 in 10.0 mi North 8.1 mph - N/A   Overcast
10:34 AM 79.0 °F - 69.1 °F 72% 29.95 in 10.0 mi NE 5.8 mph - N/A   Overcast
10:52 AM 80.1 °F 83.2 °F 70.0 °F 71% 29.94 in 10.0 mi North 4.6 mph - N/A   Overcast
11:52 AM 82.9 °F 87.0 °F 70.0 °F 65% 29.96 in 10.0 mi NNW 5.8 mph - N/A   Overcast
12:52 PM 84.0 °F 88.4 °F 70.0 °F 63% 29.94 in 10.0 mi NW 5.8 mph - N/A   Mostly Cloudy
1:00 PM 84.0 °F 87.8 °F 69.1 °F 61% 29.96 in 10.0 mi WNW 6.9 mph - N/A   Mostly Cloudy
1:10 PM 84.0 °F 87.8 °F 69.1 °F 61% 29.96 in 10.0 mi NW 6.9 mph - N/A   Overcast
1:47 PM 84.2 °F 88.4 °F 69.8 °F 62% 29.94 in 10.0 mi North 8.1 mph - N/A   Overcast
1:52 PM 84.0 °F 88.4 °F 70.0 °F 63% 29.92 in 10.0 mi NNW 10.4 mph - N/A   Overcast
1:56 PM 84.0 °F 87.8 °F 69.1 °F 61% 29.94 in 10.0 mi Variable 5.8 mph 23.0 mph N/A   Overcast
2:52 PM 84.0 °F 87.8 °F 69.1 °F 61% 29.92 in 10.0 mi NNE 10.4 mph - N/A   Overcast
3:44 PM 84.0 °F 87.8 °F 69.1 °F 61% 29.94 in 10.0 mi North 10.4 mph - N/A   Overcast
3:52 PM 84.0 °F 87.8 °F 69.1 °F 61% 29.93 in 10.0 mi North 10.4 mph - N/A   Overcast
4:52 PM 84.9 °F 88.2 °F 68.0 °F 57% 29.94 in 10.0 mi North 9.2 mph - N/A   Overcast
5:52 PM 82.0 °F 84.5 °F 66.9 °F 60% 29.95 in 10.0 mi North 9.2 mph - N/A   Mostly Cloudy
6:52 PM 81.0 °F 82.7 °F 64.9 °F 58% 29.97 in 10.0 mi North 11.5 mph 20.7 mph N/A   Mostly Cloudy
7:52 PM 80.1 °F 81.2 °F 62.1 °F 54% 29.96 in 10.0 mi NNE 9.2 mph - N/A   Scattered Clouds
8:52 PM 79.0 °F - 60.1 °F 52% 29.97 in 10.0 mi North 8.1 mph - N/A   Clear
9:52 PM 78.1 °F - 60.1 °F 54% 29.99 in 10.0 mi NNE 8.1 mph - N/A   Clear
10:52 PM 77.0 °F - 60.1 °F 56% 29.99 in 10.0 mi North 4.6 mph - N/A   Scattered Clouds
11:52 PM 77.0 °F - 61.0 °F 58% 29.99 in 10.0 mi North 6.9 mph - N/A   Clear